Fulton, NY
on Saturday, December 9, 2017

Saturday
       
Previous Day Next Day
Daily Summary
 ActualAverage (KSYR)Record (KSYR)
Temperature
Mean Temperature °F °C °F °C  
Max Temperature 35°F 2°C 38°F 3°C 67°F 19°C (1966)
Min Temperature 23°F -5°C 23°F -5°C -11°F -23°C (1902)
Degree Days
Heating Degree Days 36    
Moisture
Dew Point 18°F -8°C   
Average Humidity 66    
Maximum Humidity 86    
Minimum Humidity 52    
Precipitation
Precipitation 0.00 in / 0.00 cm in / cm in / cm ()
Wind
Wind Speed 5 mph / 8 km/h   
Max Wind Speed 8 mph / 13 km/h   
Max Gust Speed mph / km/h   
Visibility 9 miles / 14 kilometers   
Events     
Averages and records for this station are not official NWS values.
Key: T is trace of precipitation, MM is missing value
Source: NWS Daily Summary
Seasonal Weather Averages
Time(EST)TemperatureDew PointHumidity Pressure Visibility Wind DirectionWind SpeedGust SpeedPrecipitationEvents Conditions
12:54 AM 28.0°F -2.2°C 14.0°F -10.0°C 56% 29.93 in / 1013.3 hPa 10.0 miles / 16.1 kilometers South 6.9 mph / 11.1 km/h - N/A   Scattered Clouds
1:54 AM 28.9°F -1.7°C 15.1°F -9.4°C 56% 29.93 in / 1013.5 hPa 10.0 miles / 16.1 kilometers South 8.1 mph / 13.0 km/h - N/A   Overcast
2:54 AM 28.9°F -1.7°C 15.1°F -9.4°C 56% 29.94 in / 1013.7 hPa 10.0 miles / 16.1 kilometers South 6.9 mph / 11.1 km/h - N/A   Overcast
3:54 AM 28.0°F -2.2°C 16.0°F -8.9°C 61% 29.93 in / 1013.4 hPa 10.0 miles / 16.1 kilometers South 6.9 mph / 11.1 km/h - N/A   Mostly Cloudy
4:54 AM 28.0°F -2.2°C 16.0°F -8.9°C 61% 29.93 in / 1013.5 hPa 10.0 miles / 16.1 kilometers South 6.9 mph / 11.1 km/h - N/A   Overcast
5:54 AM 27.0°F -2.8°C 15.1°F -9.4°C 61% 29.93 in / 1013.5 hPa 10.0 miles / 16.1 kilometers SSW 5.8 mph / 9.3 km/h - N/A   Scattered Clouds
6:54 AM 27.0°F -2.8°C 16.0°F -8.9°C 63% 29.94 in / 1013.7 hPa 10.0 miles / 16.1 kilometers Variable 3.5 mph / 5.6 km/h - N/A   Overcast
7:54 AM 25.0°F -3.9°C 15.1°F -9.4°C 66% 29.94 in / 1013.6 hPa 10.0 miles / 16.1 kilometers SE 3.5 mph / 5.6 km/h - N/A   Clear
8:54 AM 27.0°F -2.8°C 16.0°F -8.9°C 63% 29.93 in / 1013.5 hPa 10.0 miles / 16.1 kilometers Variable 3.5 mph / 5.6 km/h - N/A   Clear
9:54 AM 30.0°F -1.1°C 16.0°F -8.9°C 56% 29.92 in / 1013.0 hPa 10.0 miles / 16.1 kilometers Variable 3.5 mph / 5.6 km/h - N/A   Clear
10:54 AM 30.9°F -0.6°C 16.0°F -8.9°C 54% 29.89 in / 1012.2 hPa 10.0 miles / 16.1 kilometers ESE 4.6 mph / 7.4 km/h - N/A   Overcast
11:54 AM 33.1°F 0.6°C 18.0°F -7.8°C 54% 29.86 in / 1011.1 hPa 10.0 miles / 16.1 kilometers Variable 3.5 mph / 5.6 km/h - N/A   Clear
12:54 PM 34.0°F 1.1°C 21.0°F -6.1°C 59% 29.83 in / 1009.9 hPa 10.0 miles / 16.1 kilometers ESE 6.9 mph / 11.1 km/h - N/A   Clear
1:54 PM 35.1°F 1.7°C 19.0°F -7.2°C 52% 29.81 in / 1009.3 hPa 10.0 miles / 16.1 kilometers Variable 4.6 mph / 7.4 km/h - N/A   Clear
2:54 PM 34.0°F 1.1°C 19.0°F -7.2°C 54% 29.79 in / 1008.7 hPa 10.0 miles / 16.1 kilometers SE 5.8 mph / 9.3 km/h - N/A   Clear
3:54 PM 33.1°F 0.6°C 19.9°F -6.7°C 59% 29.78 in / 1008.2 hPa 10.0 miles / 16.1 kilometers Variable 3.5 mph / 5.6 km/h - N/A   Clear
4:54 PM 30.9°F -0.6°C 19.9°F -6.7°C 64% 29.78 in / 1008.4 hPa 10.0 miles / 16.1 kilometers Calm Calm - N/A   Clear
5:54 PM 28.9°F -1.7°C 19.9°F -6.7°C 69% 29.78 in / 1008.5 hPa 10.0 miles / 16.1 kilometers Calm Calm - N/A   Clear
6:54 PM 26.1°F -3.3°C 19.0°F -7.2°C 75% 29.78 in / 1008.4 hPa 7.0 miles / 11.3 kilometers Calm Calm - N/A   Clear
7:54 PM 23.0°F -5.0°C 19.0°F -7.2°C 85% 29.77 in / 1008.0 hPa 8.0 miles / 12.9 kilometers Calm Calm - N/A   Clear
8:54 PM 24.1°F -4.4°C 19.0°F -7.2°C 81% 29.75 in / 1007.5 hPa 8.0 miles / 12.9 kilometers Calm Calm - N/A   Clear
9:54 PM 27.0°F -2.8°C 19.0°F -7.2°C 72% 29.76 in / 1007.8 hPa 8.0 miles / 12.9 kilometers SE 3.5 mph / 5.6 km/h - N/A   Clear
10:40 PM 25.0°F -3.9°C 21.0°F -6.1°C 85% 29.74 in / 1007.0 hPa 2.5 miles / 4.0 kilometers Calm Calm - N/A   Scattered Clouds
10:51 PM 24.8°F -4.0°C 21.2°F -6.0°C 86% 29.74 in / 1007.0 hPa 3.0 miles / 4.8 kilometers Calm Calm - N/A   Scattered Clouds
10:54 PM 25.0°F -3.9°C 21.0°F -6.1°C 85% 29.76 in / 1007.6 hPa 3.0 miles / 4.8 kilometers Calm Calm - N/A   Scattered Clouds
11:54 PM 27.0°F -2.8°C 21.0°F -6.1°C 78% 29.74 in / 1007.1 hPa 10.0 miles / 16.1 kilometers Calm Calm - N/A   Overcast